Location: Unspecified
(47.1121°N, 116.3927°W)
Time: 19:00:11
(UTC-08:00)

ISS - Visible Passes

Search period start: 20 November 2017 00:00
Search period end: 30 November 2017 00:00
Orbit: 402 x 407 km, 51.6° (Epoch: 21 November)

Date Brightness Start Highest point End Pass type
(mag) Time Alt. Az. Time Alt. Az. Time Alt. Az.
26 Nov -0.8 18:40:57 10° SSW 18:41:10 11° SSW 18:41:10 11° SSW visible
27 Nov -2.1 17:49:13 10° SSW 17:51:13 21° SSE 17:51:13 21° SSE visible
28 Nov -1.5 16:58:03 10° SSE 16:59:41 13° SE 17:01:11 10° ESE visible
28 Nov -1.6 18:32:24 10° WSW 18:33:51 24° SW 18:33:51 24° SW visible
29 Nov -3.4 17:40:13 10° SW 17:43:21 44° SE 17:43:44 42° SE visible
